{"data":{"norad_id":49442,"epoch":"2026-09-20T04:00:03.000096Z","epoch_age_seconds":70066,"freshness":"FRESH","line1":"1 49442U 21104AL  26263.16670139  .01234578  00000+0  15887-1 0  9992","line2":"2 49442  53.1588  37.6868 0001445 106.6296 350.9587 15.55921913  5910","mean_motion":15.55921913,"eccentricity":0.0001445,"inclination_deg":53.1588,"raan_deg":37.6868,"arg_perigee_deg":106.6296,"mean_anomaly_deg":350.9587,"bstar":0.015887,"rev_number":591,"period_min":92.549631698644,"perigee_km":398.49470058354,"apogee_km":400.45343018144,"semimajor_km":6777.6110653825,"source":"CELESTRAK","updated_at":"2026-09-20T09:00:39.261493Z"}}